This is the latest recevied weather packets stored in our database for station/object KB1FFS. If no packets are shown the sender has not sent any weather packets the latest 10 day(s).
| Time | Temp. | Humidity | Pressure | Rain* | Wind** | Luminosity | Snow |
|---|---|---|---|---|---|---|---|
| 1777857621 | 24.44° C | 37% | 1016.2 hPa | 0 mm | - | 1 W/m² | - |
| 1777857318 | 24.44° C | 36% | 1016.2 hPa | 0 mm | - | 2 W/m² | - |
| 1777857014 | 25° C | 35% | 1016 hPa | 0 mm | - | 3 W/m² | - |
| 1777856710 | 25° C | 35% | 1016 hPa | 0 mm | - | 5 W/m² | - |
| 1777856406 | 25° C | 35% | 1015.9 hPa | 0 mm | - | 7 W/m² | - |
| 1777856102 | 25° C | 34% | 1016.1 hPa | 0 mm | - | 13 W/m² | - |
| 1777855800 | 25.56° C | 34% | 1016.1 hPa | 0 mm | - | 17 W/m² | - |
| 1777855498 | 25.56° C | 34% | 1016.1 hPa | 0 mm | - | 23 W/m² | - |
| 1777855194 | 25.56° C | 33% | 1015.8 hPa | 0 mm | - | 26 W/m² | - |
| 1777854890 | 25.56° C | 33% | 1015.9 hPa | 0 mm | - | 31 W/m² | - |
| 1777854588 | 26.11° C | 34% | 1016 hPa | 0 mm | - | 30 W/m² | - |
| 1777854285 | 26.11° C | 33% | 1016.2 hPa | 0 mm | - | 25 W/m² | - |
| 1777853982 | 26.11° C | 32% | 1016.1 hPa | 0 mm | - | 28 W/m² | - |
| 1777853679 | 26.67° C | 32% | 1016 hPa | 0 mm | - | 29 W/m² | - |
| 1777853376 | 27.22° C | 31% | 1016.1 hPa | 0 mm | - | 36 W/m² | - |
| 1777853073 | 27.78° C | 31% | 1016 hPa | 0 mm | - | 40 W/m² | - |
| 1777852770 | 28.33° C | 30% | 1016.1 hPa | 0 mm | - | 134 W/m² | - |
| 1777852468 | 28.89° C | 28% | 1016 hPa | 0 mm | - | 147 W/m² | - |
| 1777852165 | 29.44° C | 28% | 1016.1 hPa | 0 mm | - | 163 W/m² | - |
| 1777851863 | 28.89° C | 29% | 1016.1 hPa | 0 mm | - | 179 W/m² | - |
| 1777851560 | 28.33° C | 28% | 1016.4 hPa | 0 mm | - | 163 W/m² | - |
| 1777851257 | 28.33° C | 28% | 1016.5 hPa | 0 mm | - | 206 W/m² | - |
| 1777850953 | 28.89° C | 28% | 1016.4 hPa | 0 mm | - | 196 W/m² | - |
| 1777850650 | 28.89° C | 28% | 1016.3 hPa | 0 mm | - | 252 W/m² | - |
| 1777850348 | 28.89° C | 28% | 1016.4 hPa | 0 mm | - | 250 W/m² | - |
* Rain latest hour (hover to see other rain measurements)
** Current wind speed in m/s (hover to see current wind gust speed)